Weather in Tsrau

Russia / Republic of North Ossetia — Alania     43°03′06″N   44°10′50″E
temp.,
°C
wind,
m/s
gust,
m/s
humid.,
%
clouds,
%
prec.,
mm/h
press.,
hPa
HPBL,
m
7 march, sun
sun700:00+3ssw4448100 0.0 101665
03:00+1w125994 0.0 101841
06:00−4wnw129685 4.6 1022195
09:00−4nne449592 5.8 1022413
12:00−4nne3388100 1.5 1022504
15:00−3ne2376100 2.2 1021697
18:00−4ne2280100 0.3 102272
21:00−6e018298 0.3 102321
8 march, mon
mon800:00−6w117511 0.0 102222
03:00−6ssw11766 0.0 102240
06:00−6wsw01730 0.0 102121
09:00−4n217015 0.0 1019302
12:00−2nne2270100 0.0 1017554
15:00−1nnw2271100 0.2 1016624
18:00−3wnw128499 0.1 1017126
21:00−4ssw127899 0.2 101924
9 march, tue
tue900:00−5ssw117252 0.0 101922
03:00−5sw117041 0.0 101822
06:00−6ssw116840 0.0 101922
09:00−2nne217033 0.0 1018353
12:000nne226917 0.0 1017661
15:00+1nne216330 0.1 1016763
18:00−1wnw117296 0.1 101927
21:00−4sw227992 0.3 102286
10 march, wed
wed1000:00−5ssw227764 1.0 102377
03:00−5ssw238470 1.6 102488
06:00−6s117580 0.3 102528
09:00−4ne349480 1.0 1024419
12:00−3ne3488100 0.8 1022524
15:00−3ne3482100 1.6 1020597
18:00−4ne1390100 0.6 1020187
21:00−5ne1391100 0.9 1020183
11 march, thu
thu1100:00−5nne2394100 0.2 1019306
03:00−6nne2396100 0.8 1018266
06:00−6nne3496100 1.2 1017271
09:00−6nne3394100 2.6 1016378
12:00−5ne4592100 1.6 1014557
15:00−7nne5695100 4.1 1014546
18:00−10nne3597100 2.7 1016391
21:00−11nne2397100 3.9 1019234